This demonstration page uses our WeatherBlox Daily Observations layout. Learn more.

40.92945, -100.16068

Hourly Observations for December 23, 2015

Temp ( °F °C ) Dew Point ( °F °C ) Humidity (%) Winds ( mph kmh ) Pressure ( in mb ) Visibility ( mi km ) Precip ( " mm )
12:15 am 00:15 Clear 33 0.5 32 -0.2 95 95 NW 6 9 29.41 996 10 16.0934 N/A
12:35 am 00:35 Clear 33 0.6 32 0 96 96 NW 7 11 29.41 996 10 16.0934 N/A
12:55 am 00:55 Clear 32 0.1 31 -0.5 96 96 NW 7 11 29.44 997 10 16.0934 N/A
1:15 am 01:15 Clear 32 0 31 -0.5 96 96 NW 10 17 29.44 997 10 16.0934 N/A
1:35 am 01:35 Clear 32 0 30 -1 93 93 NNW 8 13 29.44 997 10 16.0934 N/A
1:55 am 01:55 Clear 31 -0.5 29 -1.4 94 94 NW 10 17 29.44 997 10 16.0934 N/A
2:15 am 02:15 Clear 32 0 30 -1 93 93 NNW 8 13 29.44 997 10 16.0934 N/A
2:35 am 02:35 Clear 34 0.9 31 -0.3 92 92 NNW 9 15 29.41 996 10 16.0934 N/A
2:55 am 02:55 Clear 36 2.2 31 -0.5 83 83 NNW 13 20 29.41 996 10 16.0934 N/A
3:15 am 03:15 Clear 37 2.5 31 -0.8 79 79 NNW 16 26 29.41 996 10 16.0934 N/A
3:35 am 03:35 Clear 37 2.5 30 -1 78 78 NNW 16 26 29.41 996 10 16.0934 N/A
3:55 am 03:55 Mostly Cloudy 37 2.7 30 -1 77 77 NNW 16 26 29.41 996 10 16.0934 N/A
4:15 am 04:15 Cloudy 38 3.1 31 -0.8 76 76 NNW 14 22 29.41 996 10 16.0934 N/A
4:35 am 04:35 Cloudy 38 3.2 31 -0.7 76 76 NNW 14 22 29.41 996 10 16.0934 N/A
4:55 am 04:55 Cloudy 38 3.1 31 -0.6 77 77 NNW 13 20 29.41 996 10 16.0934 N/A
5:15 am 05:15 Cloudy 38 3.2 31 -0.6 76 76 NW 13 20 29.41 996 10 16.0934 N/A
5:35 am 05:35 Cloudy with Light Drizzle 38 3.3 32 0 79 79 NNW 16 26 29.41 996 10 16.0934 N/A
5:55 am 05:55 Cloudy with Rain 37 2.9 33 0.6 85 85 N 14 22 29.41 996 10 16.0934 N/A
6:15 am 06:15 Cloudy with Light Drizzle 37 2.7 34 0.9 88 88 NE 12 19 29.41 996 10 16.0934 N/A
6:35 am 06:35 Cloudy 37 2.7 34 0.9 88 88 NNE 8 13 29.41 996 10 16.0934 N/A
6:55 am 06:55 Cloudy 37 2.5 33 0.7 88 88 N 8 13 29.41 996 10 16.0934 N/A
7:15 am 07:15 Cloudy 36 2.2 33 0.6 89 89 N 9 15 29.41 996 10 16.0934 N/A
7:35 am 07:35 Cloudy 36 2 33 0.5 90 90 WNW 13 20 29.41 996 10 16.0934 N/A
7:55 am 07:55 Cloudy 35 1.8 33 0.5 91 91 NNW 10 17 29.41 996 10 16.0934 N/A
8:15 am 08:15 Partly Cloudy 35 1.5 32 0.1 91 91 NW 9 15 29.41 996 10 16.0934 N/A
8:35 am 08:35 Sunny 34 1.2 32 0 92 92 NW 6 9 29.41 996 10 16.0934 N/A
8:55 am 08:55 Sunny 35 1.4 32 0.1 91 91 WNW 7 11 29.41 996 10 16.0934 N/A
9:15 am 09:15 Sunny 35 1.5 32 0.1 91 91 WNW 7 11 29.41 996 10 16.0934 N/A
9:35 am 09:35 Sunny 35 1.7 33 0.4 91 91 WNW 6 9 29.44 997 10 16.0934 N/A
9:55 am 09:55 Sunny 36 2.1 33 0.5 89 89 WNW 9 15 29.44 997 10 16.0934 N/A
10:15 am 10:15 Sunny 37 2.6 33 0.6 87 87 WNW 8 13 29.44 997 10 16.0934 N/A
10:35 am 10:35 Sunny 38 3.5 33 0.5 81 81 NNW 8 13 29.44 997 10 16.0934 N/A
10:55 am 10:55 Sunny 40 4.5 33 0.4 75 75 NNW 9 15 29.44 997 10 16.0934 N/A
11:15 am 11:15 Sunny 41 4.8 31 -0.6 68 68 N 8 13 29.44 997 10 16.0934 N/A
11:35 am 11:35 Sunny 42 5.5 32 -0.2 67 67 N 15 24 29.44 997 10 16.0934 N/A
11:55 am 11:55 Mostly Cloudy 41 5.2 32 -0.2 68 68 N 14 22 29.44 997 10 16.0934 N/A
12:15 pm 12:15 Mostly Cloudy 42 5.5 31 -0.5 66 66 N 15 24 29.44 997 10 16.0934 N/A
12:35 pm 12:35 Partly Cloudy 42 5.7 31 -0.7 64 64 N 13 20 29.44 997 10 16.0934 N/A
12:55 pm 12:55 Partly Cloudy 42 5.5 30 -1 63 63 N 8 13 29.44 997 10 16.0934 N/A
1:15 pm 13:15 Partly Cloudy 42 5.6 29 -1.4 61 61 NNW 9 15 29.44 997 10 16.0934 N/A
1:35 pm 13:35 Partly Cloudy 43 6 29 -1.6 59 59 N 9 15 29.44 997 10 16.0934 N/A
1:55 pm 13:55 Partly Cloudy 43 6 27 -2.7 54 54 N 7 11 29.44 997 10 16.0934 N/A
2:15 pm 14:15 Sunny 43 6.2 27 -2.6 54 54 N 8 13 29.44 997 10 16.0934 N/A
2:35 pm 14:35 Sunny 43 6.2 27 -2.6 54 54 NNW 8 13 29.44 997 10 16.0934 N/A
2:55 pm 14:55 Sunny 43 6 27 -3 53 53 NNW 7 11 29.44 997 10 16.0934 N/A
3:15 pm 15:15 Sunny 43 6.1 26 -3.1 52 52 NW 8 13 29.44 997 10 16.0934 N/A
3:35 pm 15:35 Partly Cloudy 43 6.2 26 -3.5 50 50 WNW 10 17 29.47 998 10 16.0934 N/A
3:55 pm 15:55 Sunny 43 6.2 26 -3.5 50 50 WNW 6 9 29.47 998 10 16.0934 N/A
4:15 pm 16:15 Sunny 43 6 25 -3.7 50 50 W 5 7 29.47 998 10 16.0934 N/A
4:35 pm 16:35 Sunny 42 5.5 27 -3 55 55 WNW 5 7 29.47 998 10 16.0934 N/A
4:55 pm 16:55 Sunny 40 4.6 26 -3.3 57 57 W 5 7 29.47 998 10 16.0934 N/A
5:15 pm 17:15 Sunny 38 3.4 26 -3.2 62 62 W 3 6 29.5 999 10 16.0934 N/A
5:35 pm 17:35 Clear 35 1.8 25 -4 66 66 WSW 6 9 29.53 1000 10 16.0934 N/A
5:55 pm 17:55 Clear 35 1.5 26 -3.6 69 69 SW 5 7 29.53 1000 10 16.0934 N/A
6:15 pm 18:15 Clear 34 1.1 25 -3.9 70 70 SW 5 7 29.56 1001 10 16.0934 N/A
6:35 pm 18:35 Clear 31 -0.3 24 -4.2 75 75 Calm 29.56 1001 10 16.0934 N/A
6:55 pm 18:55 Clear 32 0 25 -4 75 75 Calm 29.59 1002 10 16.0934 N/A
7:15 pm 19:15 Clear 31 -0.8 24 -4.6 76 76 Calm 29.62 1003 10 16.0934 N/A
7:35 pm 19:35 Clear 31 -0.4 25 -4.1 76 76 SSW 3 6 29.59 1002 10 16.0934 N/A
7:55 pm 19:55 Clear 29 -1.6 24 -4.5 81 81 WSW 3 6 29.65 1004 10 16.0934 N/A
8:15 pm 20:15 Clear 29 -1.7 24 -4.5 81 81 Calm 29.65 1004 10 16.0934 N/A
8:35 pm 20:35 Clear 28 -2.4 23 -5.1 82 82 Calm 29.65 1004 10 16.0934 N/A
8:55 pm 20:55 Clear 27 -3 22 -5.4 84 84 N 3 6 29.65 1004 10 16.0934 N/A
9:15 pm 21:15 Clear 26 -3.3 23 -5.1 88 88 N 5 7 29.68 1005 10 16.0934 N/A
9:35 pm 21:35 Clear 26 -3.4 23 -5.1 88 88 Calm 29.68 1005 10 16.0934 N/A
9:55 pm 21:55 Clear 25 -4.1 22 -5.6 89 89 NW 3 6 29.71 1006 10 16.0934 N/A
10:15 pm 22:15 Clear 25 -3.8 23 -5.2 90 90 Calm 29.71 1006 10 16.0934 N/A
10:35 pm 22:35 Mostly Cloudy 26 -3.1 24 -4.5 90 90 Calm 29.68 1005 10 16.0934 N/A
10:55 pm 22:55 Mostly Cloudy 27 -2.6 24 -4.2 89 89 WSW 3 6 29.71 1006 10 16.0934 N/A
11:15 pm 23:15 Cloudy 29 -1.7 26 -3.5 88 88 W 6 9 29.74 1007 10 16.0934 N/A
11:35 pm 23:35 Cloudy 30 -1.2 26 -3.2 86 86 NW 6 9 29.74 1007 10 16.0934 N/A
11:55 pm 23:55 Cloudy 30 -1.1 26 -3.3 85 85 NNW 8 13 29.74 1007 10 16.0934 N/A

Powered by AerisWeather